User: anonymous   Login
Location: Ajisawe
(8.4333°N, 4.3833°E)
Time: 15:35:09
(UTC+00:00)
Language:

Transit 2A - Orbit

View from above orbital plane
View from above orbital plane
View from above satellite
View from above satellite

Ground track
Ground track

The orbit data is extracted from the following two-line orbital elements,

1    45U 60007A   21101.04150932 -.00000019  00000-0  22209-4 0  9991
2    45  66.6945 316.6572 0247953  99.2451 263.6782 14.33714409165368
Epoch (UTC): 11 April 2021 00:59:46
Eccentricity: 0.0247953
inclination: 66.6945°
perigee height: 602 km
apogee height: 957 km
right ascension of ascending node: 316.6572°
argument of perigee: 99.2451°
revolutions per day: 14.33714409
mean anomaly at epoch: 263.6782°
orbit number at epoch: 16536

The dashed part of the orbit path shows where the satellite is in the earth's shadow,  

DLR